Location: Borojevi?i
(45.0486°N, 16.2297°E)
Time: 15:58:59
(UTC+00:00)

Cosmos 1814 Rocket - Pass Details

Date: 08 August 2020
Orbit: 744 x 788 km, 74.1° (Epoch: 18 September)

Event Time Altitude Azimuth Distance (km) Brightness Sun altitude
Rises 21:48:12 0° 338° (NNW) 3,218 8.5 -27.0°
Reaches altitude 10° 21:50:34 10° 338° (NNW) 2,295 7.5 -27.1°
Enters shadow 21:55:32 81° 320° (NW) 778 3.9 -27.4°
